Regional Weather Roundup
Issued by NWS Cleveland, OH

Home | Current Version | Previous Version | Graphics & Text | Print | Product List | Glossary On
Versions: 1 2 3 4 5 6 7 8 9 10 11 12 13 14 15 16 17 18 19 20 21 22 23 24 25 26 27 28 29 30 31 32 33 34 35 36 37 38 39 40 41 42 43 44 45 46 47 48 49 50
000
ASUS41 KCLE 291902
RWRCLE
OHIO REGIONAL WEATHER ROUNDUP
NATIONAL WEATHER SERVICE CLEVELAND, OH
300 PM EDT THU SEP 29 2016

NOTE: "FAIR" INDICATES FEW OR NO CLOUDS BELOW 12,000 FEET WITH NO
SIGNIFICANT WEATHER AND/OR OBSTRUCTIONS TO VISIBILITY.

OHZ001>008-015>018-024>027-034-035-043-044-292000-
   NORTHWEST OHIO

CITY           SKY/WX    TMP DP  RH WIND       PRES   REMARKS
DEFIANCE       CLOUDY    68  54  60 E10       30.13S
FINDLAY        CLOUDY    67  53  61 NE14      30.10F
TOLEDO EXPRESS CLOUDY    65  58  78 NE10      30.13F
TOLEDO EXEC    PTSUNNY   65  58  78 N14G22    30.15R
LIMA           PTSUNNY   68  55  63 NE8       30.09F
$$

OHZ009>014-019>023-028>033-038-089-292000-
   NORTHEAST OHIO

CITY           SKY/WX    TMP DP  RH WIND       PRES   REMARKS
CLE-HOPKINS    RAIN      62  58  86 E5        30.14S FOG
CLE-LAKEFRONT  RAIN      62  59  90 NE9       30.12F FOG
CUY CO. ARPT   TSTM      61  61 100 E9        30.14S
LORAIN-ELYRIA  LGT RAIN  61  57  87 E8        30.13R
ASHTABULA      CLOUDY    63  61  93 E7        30.16F
AKRON-CANTON   CLOUDY    63  58  83 E12       30.11F
WOOSTER        CLOUDY    61  58  90 E7        30.12R
MANSFIELD      RAIN      59  59 100 N6        30.11S FOG
YOUNGSTOWN     LGT RAIN  62  59  90 E8        30.12F
$$

OHZ042-051>053-060>062-070>072-077>081-292000-
  SOUTHWEST OHIO

CITY           SKY/WX    TMP DP  RH WIND       PRES   REMARKS
CINC-COVINGTON PTSUNNY   65  53  65 N6        30.07F
CINC-LUNKEN    PTSUNNY   65  54  67 E3        30.08F
HAMILTON       CLOUDY    65  53  65 E8        30.09S
DAYTON         CLOUDY    63  53  70 E7        30.09S
WRIGHT-PAT AFB NOT AVBL
DAYTON GENERAL CLOUDY    61  52  72 E5        30.08S
WILMINGTON     LGT RAIN  57  57 100 NE13      30.05F FOG
$$

OHZ036-037-039>041-045>050-054>059-063>069-073>076-082>088-292000-
  CENTRAL AND SOUTHEAST OHIO

CITY           SKY/WX    TMP DP  RH WIND       PRES   REMARKS
COLUMBUS       LGT RAIN  65  58  78 N3        30.06F
OSU AIRPORT    CLOUDY    66  57  72 N5        30.06F
BOLTON FIELD   NOT AVBL
RICKENBACK AFB CLOUDY    63  56  78 NW7       30.06S
NEWARK         LGT RAIN  62  60  93 NE6       30.07S
MARION         CLOUDY    65  55  70 NE15      30.10S
LANCASTER      HVY RAIN  61  59  93 CALM      30.07S VSB 3/4
ZANESVILLE     LGT RAIN  62  60  93 NE6       30.07S
NEW PHILLY     HVY RAIN  61  60  97 N7        30.08F FOG
$$




USA.gov is the U.S. government's official web portal to all federal, state and local government web resources and services.